Content
SEND FEEDBACK

Daily
Averages
Monthly
Summary
United States of America

CHAMPAIGN, ILLINOIS


Home > North America > United States > Illinois
Elevation: 736 feet     Latitude: 40 05N     Longitude: 088 13W

WEATHER
 
SELECT A DAY
Number of Records: 197,949;   Date Range: 1/1/95 - 9/30/14
 
SHARE

PRINT THIS DATA

[ ← Previous Day ]
WEATHER ALMANAC - JANUARY 20, 2013
[ Next Day → ]
[ °C ]   °F
Weather ElementAverageHighLow
Temperature22.4 °F30.9 °F (1:53 am)19 °F (6:53 am)
Dewpoint12 °F17.1 °F (1:53 am)8.1 °F (6:53 am)
Humidity64.9 %81 % (10:53 pm)53 % (2:53 pm)
Barometer30.28 in30.35 in (9:53 am)30.12 in (1:53 am)
Wind Speed13.4 mph27.6 mph (1:53 am)
Wind Gust35.7 mph (1:53 am)
Weather ElementAverage
Visibility9.8 mi
Wind DirectionWNW (303.3 °)

Weather ElementTotal
Precipitation---
Heating Degree Days40.1 (Base 65)
Averaged from 24 records on January 20, 2013
WEATHER CONDITIONS BREAKOUT
WIND DIRECTION BREAKOUT
WEATHER BY HOUR - JANUARY 20, 2013
[ °C ]   °F
Local TimeTemperatureDewpointHumidityBarometerVisibilityWind DirectionWind SpeedGust SpeedPrecipitationEventsConditions
1:53 AM30.9 °F17.1 °F57 %30.12 in10.0 miWNW (300°)27.6 mph35.7 mphClear
2:53 AM27.0 °F12.9 °F56 %30.17 in10.0 miNW (310°)21.9 mphClear
3:53 AM25.0 °F14.0 °F63 %30.19 in10.0 miWNW (290°)17.3 mph24.2 mphClear
4:53 AM21.9 °F10.0 °F60 %30.23 in10.0 miNW (310°)18.4 mphClear
5:53 AM21.0 °F10.0 °F63 %30.27 in10.0 miNW (310°)19.6 mph26.5 mphClear
6:53 AM19.0 °F8.1 °F62 %30.28 in10.0 miNW (310°)19.6 mphClear
7:53 AM19.0 °F10.0 °F68 %30.31 in10.0 miNW (320°)17.3 mphClear
8:53 AM19.9 °F9.0 °F62 %30.32 in10.0 miNW (320°)15.0 mphClear
9:53 AM19.9 °F9.0 °F62 %30.35 in10.0 miNW (310°)11.5 mphClear
10:53 AM23.0 °F9.0 °F55 %30.34 in10.0 miWNW (300°)10.4 mphClear
11:53 AM24.1 °F10.0 °F55 %30.30 in10.0 miNW (310°)8.1 mphClear
12:53 PM26.1 °F12.0 °F55 %30.29 in10.0 miWNW (300°)9.2 mphScattered Clouds
1:53 PM25.0 °F10.9 °F55 %30.30 in10.0 miNW (320°)11.5 mphOvercast
2:53 PM25.0 °F10.0 °F53 %30.30 in10.0 miNW (320°)11.5 mphOvercast
3:53 PM24.1 °F12.0 °F60 %30.31 in10.0 miWNW (290°)9.2 mphOvercast
4:53 PM23.0 °F12.0 °F63 %30.31 in10.0 miNW (310°)9.2 mphOvercast
5:53 PM21.9 °F14.0 °F72 %30.31 in10.0 miWNW (290°)9.2 mph0.00 inOvercast
6:53 PM21.9 °F14.0 °F72 %30.31 in10.0 miWNW (290°)10.4 mphOvercast
7:53 PM21.0 °F14.0 °F74 %30.31 in10.0 miWNW (300°)9.2 mphOvercast
8:53 PM21.0 °F12.9 °F71 %30.29 in9.0 miNW (310°)9.2 mph0.00 inSnowLight Snow
9:53 PM19.9 °F14.0 °F78 %30.29 in5.0 miNW (310°)10.4 mph0.00 inSnowLight Snow
10:53 PM19.9 °F15.1 °F81 %30.28 in10.0 miWNW (290°)10.4 mph0.00 inOvercast
11:31 PM19.4 °F14.0 °F80 %30.23 in10.0 miWest (280°)12.7 mphOvercast
11:53 PM19.0 °F14.0 °F81 %30.26 in10.0 miWest (280°)12.7 mphOvercast
Hourly data recorded from KCMI, located miles away from Champaign, Illinois







STORIES FROM OUR PARTNERS